• Join FlightAware (Why Join?)
  • Login
  • US Flag 
05:15AM EDT


 

Airport Tracker/Info


-or-


 

Live Flight TrackerFlight Track Log ✈ DAL6234 ✈ 11-Apr-2013 ✈ KLGA - KSYR

Flight Track Log - Related Links

Times and Time Zones

All times are in EDT time to prevent confusion due to time zone crossing. See the DAL6234 flight status page for this flight to view local times or setup timezone preferences in your user account.

Time Position Orientation Groundspeed Altitude Reporting Facility
EDT Latitude Longitude Course Direction KTS MPH feet Rate Location/Type
04:04PM 40.7667 -73.8500 153° Southeast 156 180 1,100  Level New York TRACON
04:05PM 40.7167 -73.8167 153° Southeast 208 239 3,000 1,740 Climbing New York TRACON
04:06PM 40.7667 -73.7500 45° Northeast 233 268 4,600 1,740 Climbing New York TRACON
04:07PM 40.8333 -73.7833 339° North 273 314 6,400 2,280 Climbing New York TRACON
04:09PM 40.9522 -73.8703 331° Northwest 293 337 11,200 2,160 Climbing New York Center
04:10PM 40.9994 -73.9714 302° West 281 323 12,900 1,620 Climbing New York Center
04:11PM 41.0344 -74.0636 297° West 304 350 14,500 1,560 Climbing New York Center
04:12PM 41.0772 -74.1758 297° West 329 379 16,100 780 Climbing New York Center
04:13PM 41.1253 -74.3078 296° West 354 407 16,100  Level New York Center
04:14PM 41.1700 -74.4147 299° West 366 421 16,100  Level New York Center
04:15PM 41.2178 -74.5472 296° West 371 427 16,100  Level New York Center
04:16PM 41.2747 -74.6525 306° West 382 440 16,100 840 Level New York Center
04:17PM 41.3481 -74.7700 310° West 382 440 17,800 1,440 Climbing New York Center
04:18PM 41.4150 -74.8792 309° West 382 440 19,100 1,200 Climbing New York Center
04:19PM 41.4861 -74.9914 310° West 387 445 20,300 1,320 Climbing New York Center
04:20PM 41.5569 -75.1039 310° West 387 445 21,700 840 Climbing New York Center
04:21PM 41.6256 -75.2194 308° West 387 445 22,000 120 Climbing New York Center
04:22PM 41.6961 -75.3381 309° West 392 451 22,000  Level New York Center
04:23PM 41.7683 -75.4597 309° West 408 470 22,000  Level New York Center
04:24PM 41.8383 -75.5817 308° West 413 475 22,000 -180 Level New York Center
04:25PM 41.9083 -75.7008 308° West 413 475 21,700 -900 Descending New York Center
04:26PM 41.9744 -75.8147 308° West 408 470 20,200 -1,560 Descending New York Center
04:27PM 42.0364 -75.9256 307° West 392 451 18,600 -1,560 Descending New York Center
04:28PM 42.1003 -76.0367 308° West 385 443 17,200 -3,840 Descending New York Center
04:29PM 42.1711 -76.1233 318° Northwest 374 430 11,000 -1,620 Descending New York Center
04:30PM 42.2814 -76.1269 359° North 348 400 14,000 1,800 Climbing New York Center
04:30PM 42.3242 -76.1192 North 398 458 13,500 -1,560 Descending Boston Center
04:30PM 42.3575 -76.1156 North 396 456 13,000 -1,380 Descending Boston Center
04:31PM 42.4622 -76.1047 North 380 437 11,700 -1,020 Descending Boston Center
04:32PM 42.5542 -76.0933 North 336 387 11,000 -540 Descending Boston Center
04:34PM 42.6483 -76.0819 North 331 381 10,700 -840 Descending Boston Center
04:35PM 42.7183 -76.1142 341° North 258 297 9,400 -1,500 Descending Boston Center
04:36PM 42.7681 -76.1881 313° West 249 287 7,700 -1,620 Descending Boston Center
04:37PM 42.8158 -76.2561 314° West 251 289 6,200 -1,500 Descending Boston Center
04:38PM 42.8653 -76.3356 310° West 280 322 4,700 -1,140 Descending Boston Center
04:39PM 42.9350 -76.3683 341° North 265 305 4,000 -720 Descending Boston Center
04:40PM 42.9992 -76.3808 352° North 205 236 3,300 -840 Descending Boston Center
04:41PM 43.0556 -76.3789 North 192 221 2,400 -480 Descending Boston Center
04:42PM 43.0983 -76.3475 28° Northeast 184 212 2,400  Level Boston Center